Hourly Data Report for June 11, 2021

TORONTO CITY
ONTARIO
Current Station Operator: ECCC - MSC

43°40'00.000" N
79°24'00.000" W
112.50 m
6158355
71508
XTO

Download Data

Hourly Data (June 2021)
Hourly Data Report for June 11, 2021
TIME
LST
Temp Definition
°C
Dew Point Definition
°C
Rel Hum Definition
%
Precip. Amount Definition
mm

Wind Dir Definition
10's deg

Wind Spd Definition
km/h
Visibility Definition
km
Stn Press Definition
kPa
Hmdx Definition


Wind Chill Definition


Weather Definition


00:00 19.2 6.0 42 0.0       100.16     LegendNANA
01:00 18.9 6.7 45 0.0       100.10     LegendNANA
02:00 18.3 8.0 51 0.0       100.10     LegendNANA
03:00 17.8 7.7 52 0.0       100.07     LegendNANA
04:00 18.3 5.2 42 0.0       100.04     LegendNANA
05:00 18.8 5.0 40 0.0       100.05     LegendNANA
06:00 18.4 5.3 42 0.0       100.01     LegendNANA
07:00 18.2 7.1 48 0.0       100.02     LegendNANA
08:00 18.3 8.6 53 0.0       100.06     LegendNANA
09:00 19.4 9.1 51 0.0       100.02     LegendNANA
10:00 19.3 9.4 53 0.0       100.01     LegendNANA
11:00 20.5 10.5 53 0.0       100.02     LegendNANA
12:00 21.0 10.4 51 0.0       99.97     LegendNANA
13:00 21.9 10.2 47 0.0       99.92     LegendNANA
14:00 23.5 11.8 48 0.0       99.85 26   LegendNANA
15:00 23.0 11.0 47 0.0       99.84 25   LegendNANA
16:00 23.5 10.6 44 0.0       99.78 25   LegendNANA
17:00 22.5 10.9 48 0.0       99.73     LegendNANA
18:00 21.9 10.5 48 0.0       99.76     LegendNANA
19:00 20.6 11.6 57 0.0       99.78     LegendNANA
20:00 19.1 12.3 65 0.0       99.78     LegendNANA
21:00 18.9 12.8 68 0.0       99.87     LegendNANA
22:00 19.5 11.6 60 0.0       99.89     LegendNANA
23:00 19.4 11.7 61 0.0       99.89     LegendNANA

Notes on Data Quality.

Legend

  • E = Estimated
  • M = Missing
  • NA = Not Available*
  • [empty] = Indicates an unobserved value
Date modified: